{"data":{"norad_id":59390,"epoch":"2026-05-24T17:37:41.435040Z","epoch_age_seconds":95165,"freshness":"FRESH","line1":"1 59390U 24062S   26144.73450735  .00000873  00000+0  41617-4 0  9991","line2":"2 59390  53.1598 262.4809 0001198  77.1599 282.9536 15.30192456121316","mean_motion":15.30192456,"eccentricity":0.0001198,"inclination_deg":53.1598,"raan_deg":262.4809,"arg_perigee_deg":77.1599,"mean_anomaly_deg":282.9536,"bstar":4.1617e-5,"rev_number":12131,"period_min":94.105809655096,"perigee_km":474.41656025963,"apogee_km":476.05862881248,"semimajor_km":6853.3745945361,"source":"CELESTRAK","updated_at":"2026-05-25T13:38:18.936395Z"}}